DCS642 EDNY-EBOS

Flight info

Callsign DCS642
Flight time 1h 0m
Altitude 38000
Route ALAGO1E ALAGO DCT ARFAS DCT HERBI DCT IXWIB DCT PITES DCT REMBA M624 NIK L610 DENUT
Aircraft CL60/M-SADE3FGHIJ3J4J7P2RWXY/HB1D1

Departure

Time 2026-05-08 09:53
Airport Bodensee Airport Friedrichshafen (EDNY)

Arrival

Time 2026-05-08 10:54
Airport Ostend-Bruges International Airport (EBOS)
Time Latitude Longitude Altitude Speed Heading
2026-05-08 09:52 47.66933 9.50636 1375 ft 130 kts 61°
2026-05-08 09:53 47.67494 9.52052 1666 ft 176 kts 58°
2026-05-08 09:53 47.68147 9.53643 2515 ft 190 kts 60°
2026-05-08 09:53 47.68810 9.55397 3405 ft 203 kts 61°
2026-05-08 09:53 47.69505 9.57252 4282 ft 211 kts 62°
2026-05-08 09:54 47.70231 9.59169 5153 ft 219 kts 58°
2026-05-08 09:54 47.71336 9.60674 6031 ft 223 kts 24°
2026-05-08 09:54 47.72863 9.60914 6927 ft 230 kts 345°
2026-05-08 09:54 47.74180 9.59638 7839 ft 234 kts 307°
2026-05-08 09:55 47.75071 9.57643 8744 ft 234 kts 301°
2026-05-08 09:55 47.75930 9.55619 9627 ft 232 kts 301°
2026-05-08 09:55 47.76793 9.53625 10510 ft 232 kts 301°
2026-05-08 09:55 47.77682 9.51584 11480 ft 243 kts 302°
2026-05-08 09:56 47.78588 9.49507 12796 ft 244 kts 301°
2026-05-08 09:56 47.79495 9.47431 14021 ft 245 kts 301°
2026-05-08 09:56 47.80267 9.45206 15065 ft 251 kts 289°
2026-05-08 09:56 47.80867 9.42516 15160 ft 297 kts 287°
2026-05-08 09:57 47.82223 9.36158 16497 ft 338 kts 287°
2026-05-08 09:57 47.82945 9.32791 17538 ft 344 kts 287°
2026-05-08 09:57 47.83678 9.29378 18550 ft 348 kts 286°
2026-05-08 09:58 47.84423 9.25945 19517 ft 353 kts 288°
2026-05-08 09:58 47.85570 9.22721 20483 ft 360 kts 306°
2026-05-08 09:58 47.87285 9.19963 21384 ft 368 kts 312°
2026-05-08 09:58 47.89083 9.17242 22255 ft 373 kts 312°
2026-05-08 09:59 47.90905 9.14468 23088 ft 378 kts 311°
2026-05-08 09:59 47.92754 9.11648 23885 ft 383 kts 311°
2026-05-08 09:59 47.94632 9.08784 24701 ft 388 kts 311°
2026-05-08 09:59 47.96530 9.05884 25489 ft 393 kts 311°
2026-05-08 10:00 47.98441 9.02963 26220 ft 397 kts 311°
2026-05-08 10:00 48.00375 9.00003 26901 ft 401 kts 311°
2026-05-08 10:00 48.02331 8.97005 27562 ft 405 kts 311°
2026-05-08 10:00 48.04304 8.93979 28171 ft 409 kts 311°
2026-05-08 10:01 48.06295 8.90920 28767 ft 413 kts 311°
2026-05-08 10:01 48.08302 8.87835 29334 ft 416 kts 311°
2026-05-08 10:01 48.10329 8.84715 29866 ft 420 kts 311°
2026-05-08 10:01 48.12376 8.81559 30383 ft 423 kts 311°
2026-05-08 10:02 48.14442 8.78371 30860 ft 427 kts 311°
2026-05-08 10:02 48.16528 8.75148 31345 ft 428 kts 311°
2026-05-08 10:02 48.18605 8.71936 31884 ft 427 kts 311°
2026-05-08 10:02 48.20666 8.68744 32450 ft 426 kts 311°
2026-05-08 10:03 48.22709 8.65577 32982 ft 424 kts 311°
2026-05-08 10:03 48.24748 8.62412 33497 ft 422 kts 311°
2026-05-08 10:03 48.26784 8.59248 33974 ft 422 kts 311°
2026-05-08 10:03 48.28814 8.56089 34419 ft 421 kts 311°
2026-05-08 10:04 48.30840 8.52931 34798 ft 421 kts 311°
2026-05-08 10:04 48.32870 8.49763 35132 ft 420 kts 311°
2026-05-08 10:04 48.34895 8.46599 35480 ft 420 kts 311°
2026-05-08 10:04 48.36915 8.43440 35805 ft 419 kts 311°
2026-05-08 10:05 48.38926 8.40291 36141 ft 418 kts 311°
2026-05-08 10:05 48.40932 8.37145 36454 ft 417 kts 311°
2026-05-08 10:05 48.42941 8.33991 36740 ft 416 kts 310°
2026-05-08 10:05 48.44969 8.30804 37015 ft 416 kts 310°
2026-05-08 10:06 48.46970 8.27655 37264 ft 416 kts 310°
2026-05-08 10:06 48.49001 8.24553 37504 ft 417 kts 315°
2026-05-08 10:06 48.51273 8.21825 37752 ft 420 kts 320°
2026-05-08 10:06 48.53625 8.19218 37980 ft 420 kts 320°
2026-05-08 10:07 48.58372 8.13923 38088 ft 429 kts 320°
2026-05-08 10:07 48.63268 8.08442 38072 ft 442 kts 320°
2026-05-08 10:08 48.68287 8.02809 38071 ft 453 kts 320°
2026-05-08 10:08 48.73404 7.97051 38071 ft 462 kts 320°
2026-05-08 10:09 48.78594 7.91195 38073 ft 468 kts 320°
2026-05-08 10:09 48.83837 7.85264 38076 ft 469 kts 320°
2026-05-08 10:10 48.89062 7.79338 38072 ft 468 kts 320°
2026-05-08 10:10 48.94273 7.73410 38069 ft 467 kts 320°
2026-05-08 10:11 48.99477 7.67474 38066 ft 467 kts 320°
2026-05-08 10:11 49.04664 7.61540 38065 ft 467 kts 320°
2026-05-08 10:12 49.09843 7.55599 38073 ft 467 kts 320°
2026-05-08 10:12 49.15040 7.49621 38075 ft 467 kts 320°
2026-05-08 10:13 49.20277 7.43579 38070 ft 466 kts 320°
2026-05-08 10:13 49.24930 7.36724 38075 ft 462 kts 309°
2026-05-08 10:14 49.29173 7.29307 38075 ft 462 kts 308°
2026-05-08 10:14 49.33408 7.21899 38073 ft 462 kts 308°
2026-05-08 10:15 49.37635 7.14485 38073 ft 461 kts 308°
2026-05-08 10:15 49.41851 7.07070 38067 ft 462 kts 308°
2026-05-08 10:16 49.46078 6.99616 38064 ft 462 kts 308°
2026-05-08 10:16 49.50290 6.92168 38065 ft 461 kts 308°
2026-05-08 10:17 49.54503 6.84699 38065 ft 462 kts 308°
2026-05-08 10:17 49.58707 6.77224 38069 ft 462 kts 308°
2026-05-08 10:18 49.62906 6.69736 38076 ft 462 kts 308°
2026-05-08 10:18 49.67115 6.62211 38076 ft 463 kts 308°
2026-05-08 10:19 49.71316 6.54677 38075 ft 463 kts 308°
2026-05-08 10:20 49.77810 6.43624 38072 ft 464 kts 310°
2026-05-08 10:20 49.82187 6.36300 38079 ft 464 kts 310°
2026-05-08 10:21 49.86566 6.28951 38080 ft 464 kts 310°
2026-05-08 10:21 49.90937 6.21594 38075 ft 463 kts 310°
2026-05-08 10:22 49.95323 6.14190 38069 ft 464 kts 310°
2026-05-08 10:22 49.99676 6.06819 38071 ft 464 kts 310°
2026-05-08 10:23 50.04021 5.99440 38068 ft 464 kts 310°
2026-05-08 10:23 50.08384 5.92010 38065 ft 464 kts 310°
2026-05-08 10:24 50.12729 5.84588 38071 ft 463 kts 310°
2026-05-08 10:24 50.17075 5.77142 38067 ft 463 kts 310°
2026-05-08 10:25 50.21414 5.69687 38071 ft 463 kts 310°
2026-05-08 10:25 50.25739 5.62233 38078 ft 463 kts 310°
2026-05-08 10:26 50.30077 5.54737 38086 ft 463 kts 310°
2026-05-08 10:26 50.34397 5.47249 38116 ft 464 kts 310°
2026-05-08 10:27 50.38710 5.39752 38085 ft 463 kts 310°
2026-05-08 10:27 50.43016 5.32243 38092 ft 463 kts 309°
2026-05-08 10:28 50.47326 5.24707 38091 ft 463 kts 309°
2026-05-08 10:28 50.51616 5.17183 38095 ft 463 kts 309°
2026-05-08 10:29 50.55899 5.09649 38092 ft 463 kts 309°
2026-05-08 10:29 50.58043 5.05869 37940 ft 461 kts 309°
2026-05-08 10:29 50.60166 5.02121 37531 ft 456 kts 309°
2026-05-08 10:29 50.62265 4.98412 37080 ft 452 kts 309°
2026-05-08 10:30 50.64345 4.94729 36590 ft 450 kts 309°
2026-05-08 10:30 50.66438 4.91061 36088 ft 448 kts 311°
2026-05-08 10:30 50.68632 4.87590 35575 ft 448 kts 313°
2026-05-08 10:30 50.70849 4.84151 35026 ft 447 kts 313°
2026-05-08 10:31 50.73056 4.80718 34373 ft 445 kts 313°
2026-05-08 10:31 50.75252 4.77296 33739 ft 442 kts 313°
2026-05-08 10:31 50.77428 4.73899 33155 ft 438 kts 313°
2026-05-08 10:31 50.79576 4.70541 32599 ft 433 kts 313°
2026-05-08 10:32 50.81701 4.67214 32059 ft 429 kts 313°
2026-05-08 10:32 50.83813 4.63901 31538 ft 429 kts 313°
2026-05-08 10:32 50.85929 4.60576 31012 ft 431 kts 313°
2026-05-08 10:32 50.88057 4.57226 30483 ft 433 kts 313°
2026-05-08 10:33 50.90210 4.53889 29957 ft 435 kts 315°
2026-05-08 10:33 50.92504 4.50746 29423 ft 437 kts 318°
2026-05-08 10:33 50.94832 4.47632 28891 ft 438 kts 318°
2026-05-08 10:33 50.97159 4.44512 28358 ft 437 kts 318°
2026-05-08 10:34 50.99472 4.41404 27826 ft 434 kts 318°
2026-05-08 10:34 51.01763 4.38322 27299 ft 431 kts 318°
2026-05-08 10:34 51.04035 4.35263 26780 ft 427 kts 318°
2026-05-08 10:34 51.06285 4.32228 26267 ft 424 kts 317°
2026-05-08 10:35 51.08527 4.29199 25746 ft 421 kts 317°
2026-05-08 10:35 51.10734 4.26213 25240 ft 417 kts 317°
2026-05-08 10:35 51.12935 4.23232 24736 ft 414 kts 317°
2026-05-08 10:35 51.15030 4.20095 24235 ft 408 kts 308°
2026-05-08 10:36 51.16540 4.16329 23713 ft 401 kts 292°
2026-05-08 10:36 51.17371 4.12129 23192 ft 395 kts 281°
2026-05-08 10:36 51.17949 4.07862 22706 ft 392 kts 280°
2026-05-08 10:36 51.18525 4.03630 22231 ft 391 kts 280°
2026-05-08 10:37 51.19101 3.99395 21761 ft 389 kts 280°
2026-05-08 10:37 51.19672 3.95189 21288 ft 387 kts 280°
2026-05-08 10:37 51.20238 3.91002 20818 ft 385 kts 281°
2026-05-08 10:37 51.20799 3.86848 20352 ft 382 kts 281°
2026-05-08 10:38 51.21354 3.82720 19885 ft 380 kts 281°
2026-05-08 10:38 51.21904 3.78617 19428 ft 377 kts 281°
2026-05-08 10:38 51.22448 3.74553 18971 ft 375 kts 281°
2026-05-08 10:38 51.22991 3.70476 18518 ft 374 kts 281°
2026-05-08 10:39 51.23584 3.66460 18063 ft 372 kts 287°
2026-05-08 10:39 51.24707 3.62752 17607 ft 372 kts 299°
2026-05-08 10:39 51.26030 3.59225 17143 ft 369 kts 300°
2026-05-08 10:39 51.27336 3.55715 16704 ft 367 kts 300°
2026-05-08 10:40 51.28421 3.52077 16259 ft 361 kts 286°
2026-05-08 10:40 51.28793 3.48171 15801 ft 353 kts 269°
2026-05-08 10:40 51.28469 3.44348 15344 ft 346 kts 257°
2026-05-08 10:40 51.27922 3.40647 14921 ft 339 kts 256°
2026-05-08 10:41 51.27385 3.36999 14503 ft 335 kts 257°
2026-05-08 10:41 51.26858 3.33425 14118 ft 329 kts 256°
2026-05-08 10:41 51.26337 3.29903 13701 ft 323 kts 256°
2026-05-08 10:41 51.25825 3.26449 13338 ft 316 kts 256°
2026-05-08 10:42 51.25321 3.23060 12927 ft 311 kts 256°
2026-05-08 10:42 51.24827 3.19743 12573 ft 305 kts 256°
2026-05-08 10:42 51.24341 3.16480 12186 ft 300 kts 256°
2026-05-08 10:42 51.23862 3.13280 11836 ft 294 kts 256°
2026-05-08 10:43 51.23392 3.10136 11510 ft 288 kts 256°
2026-05-08 10:43 51.23195 3.06978 11059 ft 288 kts 274°
2026-05-08 10:43 51.23698 3.03913 10648 ft 286 kts 295°
2026-05-08 10:43 51.24840 3.01349 10201 ft 286 kts 315°
2026-05-08 10:44 51.26410 2.99408 9759 ft 285 kts 321°
2026-05-08 10:44 51.27773 2.97162 9216 ft 280 kts 304°
2026-05-08 10:44 51.28626 2.94431 8751 ft 273 kts 287°
2026-05-08 10:44 51.28940 2.91478 8192 ft 270 kts 270°
2026-05-08 10:45 51.28722 2.88573 7979 ft 259 kts 257°
2026-05-08 10:45 51.28310 2.85780 7607 ft 258 kts 256°
2026-05-08 10:45 51.27898 2.83014 7316 ft 254 kts 256°
2026-05-08 10:45 51.27489 2.80273 6998 ft 254 kts 256°
2026-05-08 10:46 51.27078 2.77529 6691 ft 254 kts 256°
2026-05-08 10:46 51.26668 2.74786 6365 ft 255 kts 256°
2026-05-08 10:46 51.26255 2.72037 5974 ft 256 kts 256°
2026-05-08 10:46 51.25840 2.69279 5649 ft 253 kts 256°
2026-05-08 10:47 51.25432 2.66567 5358 ft 251 kts 256°
2026-05-08 10:47 51.25024 2.63865 5042 ft 250 kts 256°
2026-05-08 10:47 51.24616 2.61165 4753 ft 252 kts 256°
2026-05-08 10:47 51.24050 2.58539 4402 ft 250 kts 239°
2026-05-08 10:48 51.22907 2.56500 4018 ft 247 kts 213°
2026-05-08 10:48 51.21363 2.55453 3653 ft 242 kts 188°
2026-05-08 10:48 51.19707 2.55520 3175 ft 237 kts 165°
2026-05-08 10:48 51.18164 2.56193 2979 ft 222 kts 155°
2026-05-08 10:49 51.16930 2.57481 2791 ft 204 kts 130°
2026-05-08 10:49 51.16272 2.59300 2856 ft 187 kts 107°
2026-05-08 10:49 51.16133 2.61352 2969 ft 187 kts 85°
2026-05-08 10:49 51.16338 2.63423 2767 ft 188 kts 78°
2026-05-08 10:50 51.16624 2.65421 2550 ft 183 kts 77°
2026-05-08 10:50 51.16902 2.67280 2345 ft 161 kts 76°
2026-05-08 10:50 51.17143 2.68868 2184 ft 137 kts 76°
2026-05-08 10:50 51.17370 2.70348 1968 ft 136 kts 76°
2026-05-08 10:51 51.17594 2.71801 1783 ft 134 kts 76°
2026-05-08 10:51 51.17815 2.73243 1606 ft 134 kts 76°
2026-05-08 10:51 51.18033 2.74665 1430 ft 129 kts 76°
2026-05-08 10:51 51.18244 2.76042 1258 ft 126 kts 76°
2026-05-08 10:52 51.18452 2.77399 1090 ft 126 kts 77°
2026-05-08 10:52 51.18659 2.78750 927 ft 126 kts 76°
2026-05-08 10:52 51.18866 2.80108 762 ft 127 kts 76°
2026-05-08 10:52 51.19079 2.81491 587 ft 129 kts 77°
2026-05-08 10:53 51.19290 2.82874 426 ft 128 kts 77°
2026-05-08 10:53 51.19512 2.84262 255 ft 129 kts 76°
2026-05-08 10:53 51.19721 2.85664 60 ft 132 kts 75°
2026-05-08 10:53 51.19913 2.86985 22 ft 105 kts 76°
2026-05-08 10:54 51.20028 2.87746 21 ft 36 kts 75°
2026-05-08 10:54 51.20065 2.87975 20 ft 17 kts 76°
2026-05-08 10:54 51.20099 2.88189 20 ft 21 kts 77°
2026-05-08 10:54 51.20155 2.88318 19 ft 14 kts 356°
2026-05-08 10:55 51.20242 2.88220 20 ft 17 kts 302°
2026-05-08 10:55 51.20245 2.88064 20 ft 16 kts 254°
2026-05-08 10:55 51.20212 2.87873 21 ft 19 kts 255°
2026-05-08 10:55 51.20188 2.87714 21 ft 11 kts 256°
2026-05-08 10:56 51.20177 2.87629 21 ft 5 kts 275°
2026-05-08 10:56 51.20216 2.87580 22 ft 9 kts 352°
2026-05-08 10:56 51.20295 2.87555 22 ft 12 kts 345°
2026-05-08 10:56 51.20322 2.87469 22 ft 11 kts 258°
2026-05-08 10:57 51.20300 2.87325 22 ft 15 kts 255°
2026-05-08 10:57 51.20263 2.87272 23 ft 8 kts 178°
2026-05-08 10:57 51.20236 2.87282 22 ft 0 kts 166°